FENGYUN 1C DEB, 35204

Orbit data source: Space-Track

FENGYUN 1C DEB, 35204 is space debris in SSO originally from a launch on Mon, 10 May 1999 UTC launched from the Taiyaun Space Center, China (TSC). Fengyun 1C debris stems from the Chinese weather satellite Fengyun-1C, which was intentionally destroyed by a Chinese anti-satellite missile in 2007. This event dramatically increased the amount of space debris, with thousands of trackable fragments posing hazards to satellites and human spaceflight. The Fengyun 1C debris cloud has become a focal point in discussions about space sustainability and the need for international regulations to prevent the creation of new debris.

Loading next visibility...
Identifier
35204, 1999-025DPL
Orbit
SSO
Country
Flag of CNCN / PRC
Related business
Manufacturer
Unknown
Mission
Spacecraft
Bus & Motor
Unknown
Mass
Unknown
Launch date (UTC)
1999-05-10 (27 years ago)
Launch vehicle
Unknown
Launch site
Taiyaun Space Center, China (TSC)
Object type
Payload
Rocket body
Debris
Shape & HBR
Unknown shape, 0.1 m
Radar Cross Section
Small (<0.1 m²)

Expand to show TLE details & history
Last TLE update: 1 day ago

TLE from 1 day ago
0 FENGYUN 1C DEB
1 35204U 99025DPL 26149.51253850  .00008511  00000-0  21231-2 0  9996
2 35204  99.0015 354.6235 0036332 177.4235 212.9568 14.51470290933623
Epoch: 2026-05-29T12:18Z
TLE epoch observation values (Epoch: 2026-05-29T12:18:03.326Z)
Latitude
29.79722°
Longitude
-82.10895°
Altitude
746.264 km
Speed
7.473 km/s
True Right ascension
23h 17m 47s
True Declination
29° 38' 56"
Sunlit
Object was in daylight at epoch
Visualization orbit readout
Latitude
Unknown
Longitude
Unknown
Altitude
Unknown
Speed
Unknown
Apparent Right ascension
Unknown
Apparent Declination
Unknown
Sunlit
N/A
Visualization observer readout
Local Sidereal Time
21:46:20
Azimuth
Unknown
Elevation
Unknown
Doppler factor
Unknown
Orbital elements
Apogee altitude
743.763 km
Perigee altitude
692.2 km
Semi-major axis
7,096.118 km
Eccentricity
0.00363
Inclination
99.0015°
RAAN
354.6235°
Arg. of periapsis
177.4235°
True anomaly
212.73117°
Mean anomaly
212.9568°
Eccentric anomaly
212.8439°
Mean motion
3.63088 °/min
Orbital period
99.15 mins
BSTAR
0.0021231
Loading maneuver chart data...
Computing Atmospheric mass density...
Loading historical data...
Loading historical data...
Loading historical data...
Loading historical data...
Loading historical data...
Loading historical data...
Loading historical data...

Documentation

Showing up to 5 results
|